Regional Weather Roundup
Issued by NWS

Home | Current Version | Previous Version | Graphics & Text | Print | Product List | Glossary On
Versions: 1 2 3 4 5 6 7 8 9 10 11 12 13 14 15 16 17 18 19 20 21 22 23 24 25 26 27 28 29 30 31 32 33 34 35 36 37 38 39 40 41 42 43 44 45 46 47 48 49 50
000
ASUS45 KCYS 041210
RWRWY

WYOMING REGIONAL WEATHER ROUNDUP
NATIONAL WEATHER SERVICE CHEYENNE WY
600 AM MDT MON MAY 04 2015

NOTE:  "FAIR" INDICATES FEW OR NO CLOUDS BELOW 12,000 FEET
WITH NO SIGNIFICANT WEATHER AND/OR OBSTRUCTIONS TO VISIBILITY.

WYZ001-041300-
YELLOWSTONE NATIONAL PARK

CITY           SKY/WX    TMP DP  RH WIND       PRES   REMARKS
LK YELLOWSTONE   N/A     27  25  92 CALM      30.13R
6HR MIN TEMP:  27; 6HR MAX TEMP:  31;

W YELLOWSTONE  NOT AVBL

$$
WYZ002>013-054>058-071-098>099-041300-
NORTHERN WYOMING

CITY           SKY/WX    TMP DP  RH WIND       PRES   REMARKS
JACKSON        FAIR      32  32 100 CALM      30.09R
CODY           FAIR      43  36  75 S5        30.01S
GREYBULL       MOCLDY    49  38  65 CALM      29.99R
6HR MIN TEMP:  49; 6HR MAX TEMP:  61; 6HR PCP: TRACE;

WORLAND        CLOUDY    49  41  74 S9        30.00R
6HR MIN TEMP:  44; 6HR MAX TEMP:  56;

SHERIDAN       MOCLDY    50  43  77 SE17      30.00R
6HR MIN TEMP:  43; 6HR MAX TEMP:  52;

BUFFALO        CLOUDY    48  43  82 SE8       30.06S
6HR MIN TEMP:  48; 6HR MAX TEMP:  50;

GILLETTE       CLOUDY    47  39  74 SE20G28   30.07S
6HR MIN TEMP:  47; 6HR MAX TEMP:  49; 6HR PCP:  0.22;

HULETT         RAIN      46  45  93 CALM      30.12R
NEWCASTLE      PTSUNNY   45  36  70 SE14      30.13S

$$
WYZ014>020-022>026-101>103-041300-
CENTRAL WYOMING

CITY           SKY/WX    TMP DP  RH WIND       PRES   REMARKS
BIG PINEY      FAIR      31  29  92 N3        30.09S
6HR MIN TEMP:  30; 6HR MAX TEMP:  39;

PINEDALE       PTSUNNY   30  30 100 W5        30.10S WCI  25
DUBOIS         FAIR      32  30  93 W9        30.08F WCI  24
LANDER         CLOUDY    44  38  79 NW5       30.04R
6HR MIN TEMP:  43; 6HR MAX TEMP:  52;

RIVERTON       FAIR      44  40  85 NW7       30.05S
6HR MIN TEMP:  43; 6HR MAX TEMP:  51;

CASPER         FOG       38  37  97 W3        30.04S VSB 1/4
6HR MIN TEMP:  38; 6HR MAX TEMP:  48;

DOUGLAS        CLOUDY    46  41  82 SE14      30.08R
6HR MIN TEMP:  46; 6HR MAX TEMP:  51; 6HR PCP:  0.01;


$$
WYZ021-027>030-104>119-041300-
SOUTHERN WYOMING

CITY           SKY/WX    TMP DP  RH WIND       PRES   REMARKS
EVANSTON       FAIR      41  36  82 E8        30.07S
6HR MIN TEMP:  41; 6HR MAX TEMP:  46;

KEMMERER       FAIR      34  34 100 N8        30.09S WCI  27
FORT BRIDGER   SUNNY     41  41 100 CALM      30.11S
ROCK SPRINGS   FAIR      40  35  83 E6        30.07R
6HR MIN TEMP:  40; 6HR MAX TEMP:  47;

DIXON          FAIR      39  37  93 CALM      30.10R
RAWLINS        FAIR      36  34  92 NW3       30.08S
6HR MIN TEMP:  36; 6HR MAX TEMP:  42;

SARATOGA       PTSUNNY   37  36  93 CALM      30.10R
LARAMIE        CLOUDY    42  40  92 SE20      30.09S
6HR MIN TEMP:  42; 6HR MAX TEMP:  44; 6HR PCP: TRACE;

CHEYENNE       CLOUDY    45  39  79 S10       30.12R
6HR MIN TEMP:  44; 6HR MAX TEMP:  50; 6HR PCP: TRACE;

TORRINGTON     CLOUDY    49  39  68 E12       30.09S
6HR MIN TEMP:  47; 6HR MAX TEMP:  53;

PINE BLUFFS    PTSUNNY   45  37  76 CALM      30.12S

$$


USA.gov is the U.S. government's official web portal to all federal, state and local government web resources and services.